Entrance Island, British Columbia

6:49 AM PST on December 07, 2016 (GMT -0800)
Entrance

Weather History for CWEL - March, 2013

Change the Weather History Date:

Friday, March 15, 2013

  Actual Average Record
Temperature  
Mean Temperature 47 °F -  
Max Temperature 48 °F - - ()
Min Temperature 46 °F - - ()
Degree Days  
Heating Degree Days 18    
Moisture  
Dew Point 45 °F    
Average Humidity 91    
Maximum Humidity 93    
Minimum Humidity 84    
Precipitation  
Precipitation 0.01 in - - ()
Sea Level Pressure  
Sea Level Pressure 30.12 in    
Wind  
Wind Speed 12 mph ()    
Max Wind Speed 18 mph    
Max Gust Speed -    
T = Trace of Precipitation, MM = Missing Value Source: Averaged Metar Reports

Daily Weather History Graph

Daily Weather History Graph

Search for Another Location

Airport or City:

Trip Planner

Search our weather history database for the weather conditions in past years. The results will help you decide how hot, cold, wet, or windy it might be!

Date:

Astronomy

Mar. 15, 2013 Rise Set
Actual Time 7:27 AM PDT 7:21 PM PDT
Civil Twilight 6:56 AM PDT 7:52 PM PDT
Nautical Twilight 6:19 AM PDT 8:29 PM PDT
Astronomical Twilight 5:41 AM PDT 9:08 PM PDT
Moon 8:58 AM PDT (3/15) No Moon Set
Length of Visible Light 12h 56m
Length of Day
11h 53m
Waxing Crescent, 16% of the Moon is Illuminated
Mar 15
Waxing Crescent
Mar 19
First Quarter
Mar 27
Full
Apr 2
Last Quarter
Apr 10
New

Hourly Weather History & Observations

Time (PDT) Temp. Windchill Dew Point Humidity Pressure Visibility Wind Dir Wind Speed Gust Speed Precip Events Conditions
12:00 AM 46.2 °F 39.8 °F 44.2 °F 93% 30.07 in - ESE 15.0 mph - N/A   Unknown
1:00 AM 46.8 °F - 44.4 °F 92% 30.09 in - ESE 15.0 mph - N/A   Unknown
2:00 AM 46.6 °F - 44.2 °F 92% 30.10 in - ESE 12.7 mph - N/A   Unknown
3:00 AM 46.6 °F - 44.4 °F 92% 30.11 in - ESE 13.8 mph - N/A   Unknown
4:00 AM 46.6 °F - 44.4 °F 92% 30.11 in - ESE 18.4 mph - N/A   Unknown
5:00 AM 47 °F - 44 °F 87% 30.11 in - ESE 15.0 mph - -  
5:00 AM 46.6 °F - 44.4 °F 92% 30.11 in - ESE 15.0 mph - N/A   Unknown
6:00 AM 46.6 °F - 44.2 °F 92% 30.12 in - ESE 16.1 mph - N/A   Unknown
7:00 AM 46.2 °F 40.1 °F 44.2 °F 93% 30.13 in - SE 13.8 mph - N/A   Unknown
8:00 AM 46.2 °F 40.8 °F 44.2 °F 93% 30.13 in - ESE 11.5 mph - N/A   Unknown
10:00 AM 47.3 °F - 44.8 °F 91% 30.15 in - SE 9.2 mph - N/A   Unknown
11:00 AM 47 °F - 45 °F 88% 30.15 in - ESE 13.8 mph - -  
11:00 AM 47.1 °F - 44.6 °F 91% 30.15 in - ESE 13.8 mph - N/A   Unknown
12:00 PM 48.0 °F - 45.1 °F 90% 30.15 in - ESE 16.1 mph - N/A   Unknown
1:00 PM 47.5 °F - 44.6 °F 90% 30.15 in - ESE 16.1 mph - N/A   Unknown
2:00 PM 47.8 °F - 45.0 °F 90% 30.14 in - ESE 16.1 mph - N/A   Unknown
3:00 PM 47.7 °F - 45.1 °F 91% 30.12 in - ESE 13.8 mph - 0.01 in   Unknown
4:00 PM 48.9 °F - 45.3 °F 87% 30.12 in - SE 13.8 mph - N/A   Unknown
5:00 PM 48 °F - 45 °F 84% 30.12 in - ESE 15.0 mph - -  
5:00 PM 47.8 °F - 44.6 °F 89% 30.12 in - ESE 15.0 mph - N/A   Unknown
6:00 PM 47.3 °F - 45.0 °F 92% 30.11 in - East 13.8 mph - N/A   Unknown
7:00 PM 47.7 °F - 45.5 °F 92% 30.10 in - ESE 11.5 mph - N/A   Unknown
8:00 PM 47.3 °F - 45.3 °F 93% 30.10 in - SE 8.1 mph - N/A   Unknown
9:00 PM 46.6 °F - 44.6 °F 93% 30.09 in - SSE 3.5 mph - N/A   Unknown
10:00 PM 46.6 °F - 44.8 °F 93% 30.09 in - East 8.1 mph - N/A   Unknown
11:00 PM 46 °F - 44 °F 91% 30.09 in - SSE 5.8 mph - -  
11:00 PM 46.0 °F 43.1 °F 44.2 °F 93% 30.09 in - SSE 5.8 mph - N/A   Unknown